Time,TemperatureF,DewpointF,PressureIn,WindDirection,WindDirectionDegrees,WindSpeedMPH,WindSpeedGustMPH,Humidity,HourlyPrecipIn,Conditions,Clouds,dailyrainin,SoftwareType,DateUTC
2013-09-15 00:00:00,67.9,56.0,29.76,SW,232,0.0,5.5,66,0.00,,---,0.00,VWS V12.07,2013-09-15 07:00:00,
2013-09-15 00:02:00,67.7,56.1,29.76,SW,232,0.0,5.5,66,0.00,,---,0.00,VWS V12.07,2013-09-15 07:02:00,
2013-09-15 00:07:00,67.5,56.2,29.76,SW,232,0.0,5.5,67,0.00,,---,0.00,VWS V12.07,2013-09-15 07:07:00,
2013-09-15 00:12:00,67.1,56.2,29.76,SW,232,0.0,5.5,68,0.00,,---,0.00,VWS V12.07,2013-09-15 07:12:00,
2013-09-15 00:17:00,67.0,56.3,29.76,SW,232,0.0,5.5,68,0.00,,---,0.00,VWS V12.07,2013-09-15 07:17:00,
2013-09-15 00:22:00,66.6,56.2,29.76,SW,232,0.0,5.5,69,0.00,,---,0.00,VWS V12.07,2013-09-15 07:22:00,
2013-09-15 00:27:00,66.3,56.1,29.76,SW,232,0.0,5.5,70,0.00,,---,0.00,VWS V12.07,2013-09-15 07:27:00,
2013-09-15 00:30:00,66.2,56.0,29.76,SW,232,0.0,0.0,70,0.00,,---,0.00,VWS V12.07,2013-09-15 07:30:00,
2013-09-15 00:32:00,66.3,56.4,29.76,SW,232,0.0,5.5,70,0.00,,---,0.00,VWS V12.07,2013-09-15 07:32:00,
2013-09-15 00:37:00,66.1,56.5,29.76,SW,232,0.0,5.5,71,0.00,,---,0.00,VWS V12.07,2013-09-15 07:37:00,
2013-09-15 00:42:00,66.1,56.7,29.76,SW,232,0.0,5.5,72,0.00,,---,0.00,VWS V12.07,2013-09-15 07:42:00,
2013-09-15 00:47:00,66.0,56.8,29.77,SW,232,0.0,5.5,72,0.00,,---,0.00,VWS V12.07,2013-09-15 07:47:00,
2013-09-15 00:52:00,65.9,56.6,29.77,SW,232,0.0,0.0,72,0.00,,---,0.00,VWS V12.07,2013-09-15 07:52:00,
2013-09-15 00:57:00,66.0,56.6,29.77,SW,232,0.0,0.0,72,0.00,,---,0.00,VWS V12.07,2013-09-15 07:57:00,
2013-09-15 01:00:00,65.9,56.4,29.77,SW,232,0.0,0.0,71,0.00,,---,0.00,VWS V12.07,2013-09-15 08:00:00,
2013-09-15 01:02:00,66.0,56.1,29.77,SW,232,0.0,0.0,70,0.00,,---,0.00,VWS V12.07,2013-09-15 08:02:00,
2013-09-15 01:07:00,66.1,55.9,29.77,SW,232,0.0,0.0,70,0.00,,---,0.00,VWS V12.07,2013-09-15 08:07:00,
2013-09-15 01:12:00,66.2,56.0,29.77,SW,232,0.0,0.0,70,0.00,,---,0.00,VWS V12.07,2013-09-15 08:12:00,
2013-09-15 01:17:00,66.1,56.1,29.77,SW,232,0.0,0.0,70,0.00,,---,0.00,VWS V12.07,2013-09-15 08:17:00,
2013-09-15 01:22:00,66.1,56.3,29.77,SW,232,0.0,0.0,71,0.00,,---,0.00,VWS V12.07,2013-09-15 08:22:00,
2013-09-15 01:27:00,66.1,56.4,29.77,SW,232,0.0,0.0,71,0.00,,---,0.00,VWS V12.07,2013-09-15 08:27:00,
2013-09-15 01:30:00,66.1,56.5,29.78,SW,232,0.0,0.0,71,0.00,,---,0.00,VWS V12.07,2013-09-15 08:30:00,
2013-09-15 01:32:00,66.0,56.5,29.77,SW,232,0.0,0.0,71,0.00,,---,0.00,VWS V12.07,2013-09-15 08:32:00,
2013-09-15 01:37:00,65.9,56.5,29.77,SW,232,0.0,0.0,72,0.00,,---,0.00,VWS V12.07,2013-09-15 08:37:00,
2013-09-15 01:42:00,65.8,56.4,29.77,SW,232,0.0,0.0,72,0.00,,---,0.00,VWS V12.07,2013-09-15 08:42:00,
2013-09-15 01:47:00,65.6,56.3,29.76,SW,232,0.0,0.0,72,0.00,,---,0.00,VWS V12.07,2013-09-15 08:47:00,
2013-09-15 01:52:00,65.5,56.4,29.76,SW,232,0.0,0.0,72,0.00,,---,0.00,VWS V12.07,2013-09-15 08:52:00,
2013-09-15 01:57:00,65.4,56.6,29.76,SW,232,0.0,0.0,73,0.00,,---,0.00,VWS V12.07,2013-09-15 08:57:00,
2013-09-15 02:00:00,65.3,56.5,29.76,SW,232,0.0,0.0,73,0.00,,---,0.00,VWS V12.07,2013-09-15 09:00:00,
2013-09-15 02:02:00,65.1,56.5,29.76,SW,232,0.0,0.0,74,0.00,,---,0.00,VWS V12.07,2013-09-15 09:02:00,
2013-09-15 02:07:00,64.9,56.5,29.76,SW,232,0.0,0.0,74,0.00,,---,0.00,VWS V12.07,2013-09-15 09:07:00,
2013-09-15 02:12:00,64.7,56.6,29.76,SW,232,0.0,0.0,75,0.00,,---,0.00,VWS V12.07,2013-09-15 09:12:00,
2013-09-15 02:17:00,64.8,56.7,29.76,SW,232,0.0,0.0,75,0.00,,---,0.00,VWS V12.07,2013-09-15 09:17:00,
2013-09-15 02:22:00,64.6,56.6,29.76,SW,232,0.0,0.0,75,0.00,,---,0.00,VWS V12.07,2013-09-15 09:22:00,
2013-09-15 02:27:00,64.3,56.4,29.76,SW,232,0.0,0.0,76,0.00,,---,0.00,VWS V12.07,2013-09-15 09:27:00,
2013-09-15 02:30:00,64.2,56.3,29.76,SW,232,0.0,0.0,75,0.00,,---,0.00,VWS V12.07,2013-09-15 09:30:00,
2013-09-15 02:32:00,64.1,56.2,29.76,SW,232,0.0,0.0,76,0.00,,---,0.00,VWS V12.07,2013-09-15 09:32:00,
2013-09-15 02:37:00,64.1,56.1,29.76,SW,232,0.0,0.0,75,0.00,,---,0.00,VWS V12.07,2013-09-15 09:37:00,
2013-09-15 02:42:00,64.0,56.0,29.76,SW,232,0.0,0.0,75,0.00,,---,0.00,VWS V12.07,2013-09-15 09:42:00,
2013-09-15 02:47:00,63.9,55.7,29.76,SW,232,0.0,0.0,75,0.00,,---,0.00,VWS V12.07,2013-09-15 09:47:00,
2013-09-15 02:52:00,64.2,55.8,29.77,SW,232,0.0,0.0,74,0.00,,---,0.00,VWS V12.07,2013-09-15 09:52:00,
2013-09-15 02:57:00,64.4,55.9,29.77,SW,232,0.0,0.0,74,0.00,,---,0.00,VWS V12.07,2013-09-15 09:57:00,
2013-09-15 03:00:00,64.3,55.8,29.77,SW,232,0.0,0.0,74,0.00,,---,0.00,VWS V12.07,2013-09-15 10:00:00,
2013-09-15 03:02:00,64.6,56.0,29.77,SW,232,0.0,0.0,74,0.00,,---,0.00,VWS V12.07,2013-09-15 10:02:00,
2013-09-15 03:07:00,64.7,56.0,29.76,SW,232,0.0,0.0,73,0.00,,---,0.00,VWS V12.07,2013-09-15 10:07:00,
2013-09-15 03:12:00,64.9,56.1,29.77,SW,232,0.0,0.0,73,0.00,,---,0.00,VWS V12.07,2013-09-15 10:12:00,
2013-09-15 03:17:00,64.7,56.0,29.77,SW,232,0.0,0.0,73,0.00,,---,0.00,VWS V12.07,2013-09-15 10:17:00,
2013-09-15 03:22:00,64.5,55.9,29.77,SW,232,0.0,0.0,74,0.00,,---,0.00,VWS V12.07,2013-09-15 10:22:00,
2013-09-15 03:27:00,64.4,56.1,29.77,SW,232,0.0,0.0,74,0.00,,---,0.00,VWS V12.07,2013-09-15 10:27:00,
2013-09-15 03:30:00,64.4,56.1,29.77,SW,232,0.0,0.0,74,0.00,,---,0.00,VWS V12.07,2013-09-15 10:30:00,
2013-09-15 03:32:00,64.3,56.2,29.77,SW,232,0.0,0.0,75,0.00,,---,0.00,VWS V12.07,2013-09-15 10:32:00,
2013-09-15 03:37:00,64.1,56.3,29.77,SW,232,0.0,0.0,76,0.00,,---,0.00,VWS V12.07,2013-09-15 10:37:00,
2013-09-15 03:42:00,63.8,56.5,29.78,SW,232,0.0,0.0,77,0.00,,---,0.00,VWS V12.07,2013-09-15 10:42:00,
2013-09-15 03:47:00,63.4,56.6,29.78,SW,232,0.0,0.0,78,0.00,,---,0.00,VWS V12.07,2013-09-15 10:47:00,
2013-09-15 03:52:00,62.9,56.4,29.78,SW,232,0.0,0.0,79,0.00,,---,0.00,VWS V12.07,2013-09-15 10:52:00,
2013-09-15 03:57:00,62.6,56.6,29.78,SW,232,0.0,0.0,81,0.00,,---,0.00,VWS V12.07,2013-09-15 10:57:00,
2013-09-15 04:00:00,62.6,56.7,29.78,SW,232,0.0,0.0,81,0.00,,---,0.00,VWS V12.07,2013-09-15 11:00:00,
2013-09-15 04:02:00,62.5,56.7,29.78,SW,232,0.0,0.0,81,0.00,,---,0.00,VWS V12.07,2013-09-15 11:02:00,
2013-09-15 04:07:00,62.3,56.8,29.78,SW,232,0.0,0.0,82,0.00,,---,0.00,VWS V12.07,2013-09-15 11:07:00,
2013-09-15 04:12:00,62.1,56.7,29.78,SW,232,0.0,0.0,82,0.00,,---,0.00,VWS V12.07,2013-09-15 11:12:00,
2013-09-15 04:17:00,61.9,56.5,29.78,SW,232,0.0,0.0,82,0.00,,---,0.00,VWS V12.07,2013-09-15 11:17:00,
2013-09-15 04:22:00,61.8,56.4,29.79,SW,232,0.0,0.0,82,0.00,,---,0.00,VWS V12.07,2013-09-15 11:22:00,
2013-09-15 04:27:00,62.0,56.2,29.79,SW,232,0.0,0.0,81,0.00,,---,0.00,VWS V12.07,2013-09-15 11:27:00,
2013-09-15 04:30:00,62.0,56.2,29.79,SW,232,0.0,0.0,81,0.00,,---,0.00,VWS V12.07,2013-09-15 11:30:00,
2013-09-15 04:32:00,62.4,56.2,29.79,SW,232,0.0,0.0,80,0.00,,---,0.00,VWS V12.07,2013-09-15 11:32:00,
2013-09-15 04:37:00,62.5,56.0,29.79,SW,232,0.0,0.0,79,0.00,,---,0.00,VWS V12.07,2013-09-15 11:37:00,
2013-09-15 04:42:00,62.7,55.9,29.79,SW,232,0.0,0.0,78,0.00,,---,0.00,VWS V12.07,2013-09-15 11:42:00,
2013-09-15 04:47:00,62.9,55.9,29.79,SW,232,0.0,0.0,78,0.00,,---,0.00,VWS V12.07,2013-09-15 11:47:00,
2013-09-15 04:52:00,62.8,55.7,29.79,SW,232,0.0,0.0,78,0.00,,---,0.00,VWS V12.07,2013-09-15 11:52:00,
2013-09-15 04:57:00,62.7,55.7,29.79,SW,232,0.0,0.0,78,0.00,,---,0.00,VWS V12.07,2013-09-15 11:57:00,
2013-09-15 05:00:00,62.8,55.8,29.79,SW,232,0.0,0.0,78,0.00,,---,0.00,VWS V12.07,2013-09-15 12:00:00,
2013-09-15 05:02:00,62.6,55.7,29.79,SW,232,0.0,0.0,78,0.00,,---,0.00,VWS V12.07,2013-09-15 12:02:00,
2013-09-15 05:07:00,62.5,55.8,29.79,SW,232,0.0,0.0,79,0.00,,---,0.00,VWS V12.07,2013-09-15 12:07:00,
2013-09-15 05:12:00,62.4,55.8,29.79,SW,232,0.0,0.0,79,0.00,,---,0.00,VWS V12.07,2013-09-15 12:12:00,
2013-09-15 05:17:00,62.3,56.0,29.79,SW,232,0.0,0.0,80,0.00,,---,0.00,VWS V12.07,2013-09-15 12:17:00,
2013-09-15 05:22:00,62.1,56.1,29.79,SW,232,0.0,0.0,81,0.00,,---,0.00,VWS V12.07,2013-09-15 12:22:00,
2013-09-15 05:27:00,61.8,56.1,29.79,SW,232,0.0,0.0,82,0.00,,---,0.00,VWS V12.07,2013-09-15 12:27:00,
2013-09-15 05:30:00,61.8,56.1,29.79,SW,232,0.0,0.0,82,0.00,,---,0.00,VWS V12.07,2013-09-15 12:30:00,
2013-09-15 05:32:00,61.8,56.2,29.79,SW,232,0.0,0.0,82,0.00,,---,0.00,VWS V12.07,2013-09-15 12:32:00,
2013-09-15 05:37:00,61.6,56.1,29.80,SW,232,0.0,0.0,82,0.00,,---,0.00,VWS V12.07,2013-09-15 12:37:00,
2013-09-15 05:42:00,61.5,56.1,29.80,SW,232,0.0,0.0,82,0.00,,---,0.00,VWS V12.07,2013-09-15 12:42:00,
2013-09-15 05:47:00,61.5,56.3,29.80,SW,232,0.0,0.0,83,0.00,,---,0.00,VWS V12.07,2013-09-15 12:47:00,
2013-09-15 05:52:00,61.4,56.3,29.81,SW,232,0.0,0.0,83,0.00,,---,0.00,VWS V12.07,2013-09-15 12:52:00,
2013-09-15 05:57:00,61.5,56.4,29.81,SW,232,0.0,0.0,83,0.00,,---,0.00,VWS V12.07,2013-09-15 12:57:00,
2013-09-15 06:00:00,61.5,56.4,29.81,SW,232,0.0,0.0,83,0.00,,---,0.00,VWS V12.07,2013-09-15 13:00:00,
2013-09-15 06:02:00,61.5,56.2,29.81,SW,232,0.0,0.0,83,0.00,,---,0.00,VWS V12.07,2013-09-15 13:02:00,
2013-09-15 06:07:00,61.5,56.2,29.81,SW,232,0.0,0.0,83,0.00,,---,0.00,VWS V12.07,2013-09-15 13:07:00,
2013-09-15 06:12:00,61.4,56.1,29.81,SW,232,0.0,0.0,83,0.00,,---,0.00,VWS V12.07,2013-09-15 13:12:00,
2013-09-15 06:17:00,61.4,56.2,29.81,SW,232,0.0,0.0,83,0.00,,---,0.00,VWS V12.07,2013-09-15 13:17:00,
2013-09-15 06:22:00,61.3,56.2,29.81,SW,232,0.0,0.0,83,0.00,,---,0.00,VWS V12.07,2013-09-15 13:22:00,
2013-09-15 06:27:00,61.2,56.3,29.81,SW,232,0.0,0.0,84,0.00,,---,0.00,VWS V12.07,2013-09-15 13:27:00,
2013-09-15 06:30:00,61.3,56.4,29.81,SW,232,0.0,0.0,84,0.00,,---,0.00,VWS V12.07,2013-09-15 13:30:00,
2013-09-15 06:32:00,61.1,56.3,29.81,SW,232,0.0,0.0,84,0.00,,---,0.00,VWS V12.07,2013-09-15 13:32:00,
2013-09-15 06:37:00,61.2,56.5,29.82,SW,232,0.0,0.0,84,0.00,,---,0.00,VWS V12.07,2013-09-15 13:37:00,
2013-09-15 06:42:00,61.5,56.7,29.82,SW,232,0.0,0.0,84,0.00,,---,0.00,VWS V12.07,2013-09-15 13:42:00,
2013-09-15 06:47:00,61.7,56.7,29.82,SW,232,0.0,0.0,84,0.00,,---,0.00,VWS V12.07,2013-09-15 13:47:00,
2013-09-15 06:52:00,62.1,56.8,29.82,SW,232,0.0,0.0,83,0.00,,---,0.00,VWS V12.07,2013-09-15 13:52:00,
2013-09-15 06:57:00,62.6,57.0,29.82,SW,232,0.0,0.0,82,0.00,,---,0.00,VWS V12.07,2013-09-15 13:57:00,
2013-09-15 07:00:00,62.6,57.0,29.82,SW,232,0.0,0.0,82,0.00,,---,0.00,VWS V12.07,2013-09-15 14:00:00,
2013-09-15 07:02:00,63.0,57.1,29.82,SW,232,0.0,0.0,81,0.00,,---,0.00,VWS V12.07,2013-09-15 14:02:00,
2013-09-15 07:07:00,63.7,57.3,29.82,SW,232,0.0,0.0,80,0.00,,---,0.00,VWS V12.07,2013-09-15 14:07:00,
2013-09-15 07:12:00,64.2,57.4,29.82,SW,232,0.0,0.0,78,0.00,,---,0.00,VWS V12.07,2013-09-15 14:12:00,
2013-09-15 07:17:00,64.8,57.5,29.83,SW,232,0.0,0.0,77,0.00,,---,0.00,VWS V12.07,2013-09-15 14:17:00,
2013-09-15 07:22:00,65.6,57.7,29.83,SW,232,0.0,0.0,76,0.00,,---,0.00,VWS V12.07,2013-09-15 14:22:00,
2013-09-15 07:27:00,66.1,57.7,29.83,SW,232,0.0,0.0,74,0.00,,---,0.00,VWS V12.07,2013-09-15 14:27:00,
2013-09-15 07:30:00,66.1,57.7,29.83,SW,232,0.0,0.0,74,0.00,,---,0.00,VWS V12.07,2013-09-15 14:30:00,
2013-09-15 07:32:00,66.5,57.8,29.83,SW,232,0.0,0.0,74,0.00,,---,0.00,VWS V12.07,2013-09-15 14:32:00,
2013-09-15 07:37:00,67.0,58.2,29.83,SW,232,0.0,0.0,73,0.00,,---,0.00,VWS V12.07,2013-09-15 14:37:00,
2013-09-15 07:42:00,66.9,57.9,29.84,SW,232,0.0,0.0,73,0.00,,---,0.00,VWS V12.07,2013-09-15 14:42:00,
2013-09-15 07:47:00,67.3,58.2,29.84,SW,232,0.0,0.0,73,0.00,,---,0.00,VWS V12.07,2013-09-15 14:47:00,
2013-09-15 07:52:00,67.4,58.0,29.84,NNE,22,0.0,4.2,72,0.00,,---,0.00,VWS V12.07,2013-09-15 14:52:00,
2013-09-15 07:57:00,67.7,57.7,29.84,NNE,22,0.0,4.2,70,0.00,,---,0.00,VWS V12.07,2013-09-15 14:57:00,
2013-09-15 08:00:00,67.8,57.8,29.84,NNE,22,0.0,4.2,70,0.00,,---,0.00,VWS V12.07,2013-09-15 15:00:00,
2013-09-15 08:02:00,67.9,57.8,29.84,NNE,22,0.0,4.2,70,0.00,,---,0.00,VWS V12.07,2013-09-15 15:02:00,
2013-09-15 08:07:00,68.1,57.7,29.84,NNE,22,0.0,4.2,69,0.00,,---,0.00,VWS V12.07,2013-09-15 15:07:00,
2013-09-15 08:12:00,68.4,57.5,29.84,North,349,4.4,4.8,68,0.00,,---,0.00,VWS V12.07,2013-09-15 15:12:00,
2013-09-15 08:17:00,68.7,57.4,29.84,NNW,335,0.0,5.5,67,0.00,,---,0.00,VWS V12.07,2013-09-15 15:17:00,
2013-09-15 08:22:00,69.4,57.5,29.84,NE,34,0.0,5.5,66,0.00,,---,0.00,VWS V12.07,2013-09-15 15:22:00,
2013-09-15 08:27:00,69.8,57.3,29.84,North,352,0.0,5.5,65,0.00,,---,0.00,VWS V12.07,2013-09-15 15:27:00,
2013-09-15 08:30:00,69.8,57.4,29.84,North,352,0.0,5.5,65,0.00,,---,0.00,VWS V12.07,2013-09-15 15:30:00,
2013-09-15 08:32:00,70.3,57.7,29.84,North,359,0.0,5.5,64,0.00,,---,0.00,VWS V12.07,2013-09-15 15:32:00,
2013-09-15 08:37:00,70.7,57.6,29.84,North,359,0.0,5.5,63,0.00,,---,0.00,VWS V12.07,2013-09-15 15:37:00,
2013-09-15 08:42:00,71.1,57.4,29.84,North,359,0.0,5.5,62,0.00,,---,0.00,VWS V12.07,2013-09-15 15:42:00,
2013-09-15 08:47:00,71.5,57.3,29.84,North,359,0.0,3.2,61,0.00,,---,0.00,VWS V12.07,2013-09-15 15:47:00,
2013-09-15 08:52:00,72.3,57.6,29.84,North,4,0.0,3.2,60,0.00,,---,0.00,VWS V12.07,2013-09-15 15:52:00,
2013-09-15 08:57:00,72.6,57.5,29.85,NNW,328,0.0,3.2,59,0.00,,---,0.00,VWS V12.07,2013-09-15 15:57:00,
2013-09-15 09:00:00,72.8,57.7,29.85,NNW,328,0.0,3.2,59,0.00,,---,0.00,VWS V12.07,2013-09-15 16:00:00,
2013-09-15 09:02:00,73.4,58.0,29.85,NNE,15,0.0,3.4,59,0.00,,---,0.00,VWS V12.07,2013-09-15 16:02:00,
2013-09-15 09:07:00,74.1,57.7,29.84,North,1,0.0,3.4,57,0.00,,---,0.00,VWS V12.07,2013-09-15 16:07:00,
2013-09-15 09:12:00,74.4,57.2,29.84,North,356,0.0,5.0,55,0.00,,---,0.00,VWS V12.07,2013-09-15 16:12:00,
2013-09-15 09:17:00,74.8,57.6,29.84,North,356,0.0,5.0,55,0.00,,---,0.00,VWS V12.07,2013-09-15 16:17:00,
2013-09-15 09:22:00,75.0,57.2,29.85,NE,37,0.0,5.0,54,0.00,,---,0.00,VWS V12.07,2013-09-15 16:22:00,
2013-09-15 09:27:00,75.8,57.7,29.85,WNW,301,0.0,5.0,53,0.00,,---,0.00,VWS V12.07,2013-09-15 16:27:00,
2013-09-15 09:30:00,75.9,57.7,29.85,WNW,301,0.0,5.0,53,0.00,,---,0.00,VWS V12.07,2013-09-15 16:30:00,
2013-09-15 09:32:00,76.1,57.4,29.85,WNW,301,0.0,5.0,52,0.00,,---,0.00,VWS V12.07,2013-09-15 16:32:00,
2013-09-15 09:37:00,76.0,57.3,29.85,NE,34,4.3,5.0,52,0.00,,---,0.00,VWS V12.07,2013-09-15 16:37:00,
2013-09-15 09:42:00,76.7,57.7,29.85,NNE,24,0.0,5.0,52,0.00,,---,0.00,VWS V12.07,2013-09-15 16:42:00,
2013-09-15 09:47:00,77.3,57.0,29.85,NNE,21,0.0,5.0,50,0.00,,---,0.00,VWS V12.07,2013-09-15 16:47:00,
2013-09-15 09:52:00,78.0,56.9,29.85,NNE,27,0.0,5.2,48,0.00,,---,0.00,VWS V12.07,2013-09-15 16:52:00,
2013-09-15 09:57:00,78.1,56.7,29.85,NNE,27,0.0,5.2,48,0.00,,---,0.00,VWS V12.07,2013-09-15 16:57:00,
2013-09-15 10:00:00,78.1,56.7,29.85,NNE,27,0.0,5.2,48,0.00,,---,0.00,VWS V12.07,2013-09-15 17:00:00,
2013-09-15 10:02:00,78.7,57.3,29.85,NE,45,0.0,5.2,48,0.00,,---,0.00,VWS V12.07,2013-09-15 17:02:00,
2013-09-15 10:07:00,78.8,57.2,29.85,NE,45,0.0,5.2,48,0.00,,---,0.00,VWS V12.07,2013-09-15 17:07:00,
2013-09-15 10:12:00,79.2,57.3,29.85,NE,45,0.0,5.2,47,0.00,,---,0.00,VWS V12.07,2013-09-15 17:12:00,
2013-09-15 10:17:00,79.2,57.4,29.85,NE,45,0.0,5.2,47,0.00,,---,0.00,VWS V12.07,2013-09-15 17:17:00,
2013-09-15 10:22:00,79.8,57.1,29.85,NE,45,0.0,5.2,46,0.00,,---,0.00,VWS V12.07,2013-09-15 17:22:00,
2013-09-15 10:27:00,80.2,57.3,29.85,NE,45,0.0,5.2,46,0.00,,---,0.00,VWS V12.07,2013-09-15 17:27:00,
2013-09-15 10:30:00,80.1,57.1,29.85,NE,45,0.0,4.2,45,0.00,,---,0.00,VWS V12.07,2013-09-15 17:30:00,
2013-09-15 10:32:00,80.6,57.1,29.85,NNE,17,0.0,5.2,45,0.00,,---,0.00,VWS V12.07,2013-09-15 17:32:00,
2013-09-15 10:37:00,81.0,56.9,29.85,NNE,14,0.0,5.2,44,0.00,,---,0.00,VWS V12.07,2013-09-15 17:37:00,
2013-09-15 10:42:00,81.5,57.2,29.85,NNE,14,0.0,5.2,44,0.00,,---,0.00,VWS V12.07,2013-09-15 17:42:00,
2013-09-15 10:47:00,82.3,57.1,29.85,NNE,14,0.0,3.5,42,0.00,,---,0.00,VWS V12.07,2013-09-15 17:47:00,
2013-09-15 10:52:00,82.2,56.7,29.85,NE,39,0.0,5.3,42,0.00,,---,0.00,VWS V12.07,2013-09-15 17:52:00,
2013-09-15 10:57:00,82.4,56.4,29.85,NE,39,0.0,5.3,41,0.00,,---,0.00,VWS V12.07,2013-09-15 17:57:00,
2013-09-15 11:00:00,82.4,56.4,29.85,NE,39,0.0,5.3,41,0.00,,---,0.00,VWS V12.07,2013-09-15 18:00:00,
2013-09-15 11:02:00,82.5,56.6,29.84,NE,39,0.0,5.3,41,0.00,,---,0.00,VWS V12.07,2013-09-15 18:02:00,
2013-09-15 11:07:00,82.7,56.4,29.84,NE,39,0.0,5.3,41,0.00,,---,0.00,VWS V12.07,2013-09-15 18:07:00,
2013-09-15 11:12:00,82.4,57.0,29.84,NE,39,0.0,5.3,42,0.00,,---,0.00,VWS V12.07,2013-09-15 18:12:00,
2013-09-15 11:17:00,82.6,56.7,29.84,NE,39,0.0,5.3,41,0.00,,---,0.00,VWS V12.07,2013-09-15 18:17:00,
2013-09-15 11:22:00,83.2,56.7,29.84,NE,39,0.0,5.3,40,0.00,,---,0.00,VWS V12.07,2013-09-15 18:22:00,
2013-09-15 11:27:00,83.3,56.8,29.84,NE,39,0.0,5.3,40,0.00,,---,0.00,VWS V12.07,2013-09-15 18:27:00,
2013-09-15 11:30:00,83.3,56.8,29.84,NE,39,0.0,3.0,40,0.00,,---,0.00,VWS V12.07,2013-09-15 18:30:00,
2013-09-15 11:32:00,83.9,57.2,29.84,NE,39,0.0,5.3,40,0.00,,---,0.00,VWS V12.07,2013-09-15 18:32:00,
2013-09-15 11:37:00,84.4,57.4,29.84,NE,39,0.0,5.3,40,0.00,,---,0.00,VWS V12.07,2013-09-15 18:37:00,
2013-09-15 11:42:00,84.8,57.3,29.84,NE,48,0.0,5.6,39,0.00,,---,0.00,VWS V12.07,2013-09-15 18:42:00,
2013-09-15 11:47:00,85.1,57.4,29.84,ENE,63,0.0,6.1,39,0.00,,---,0.00,VWS V12.07,2013-09-15 18:47:00,
2013-09-15 11:52:00,84.8,57.8,29.84,ENE,63,0.0,6.1,40,0.00,,---,0.00,VWS V12.07,2013-09-15 18:52:00,
2013-09-15 11:58:00,85.2,58.0,29.84,ENE,66,0.0,6.1,40,0.00,,---,0.00,VWS V12.07,2013-09-15 18:58:00,
2013-09-15 12:00:00,85.1,57.8,29.84,ENE,66,0.0,6.1,40,0.00,,---,0.00,VWS V12.07,2013-09-15 19:00:00,
2013-09-15 12:03:00,85.8,57.9,29.84,NE,45,0.0,6.1,39,0.00,,---,0.00,VWS V12.07,2013-09-15 19:03:00,
2013-09-15 12:08:00,86.2,57.9,29.83,NE,45,0.0,6.1,38,0.00,,---,0.00,VWS V12.07,2013-09-15 19:08:00,
2013-09-15 12:13:00,85.9,57.5,29.83,NE,45,0.0,6.1,38,0.00,,---,0.00,VWS V12.07,2013-09-15 19:13:00,
2013-09-15 12:18:00,86.3,57.4,29.83,NE,45,0.0,6.1,38,0.00,,---,0.00,VWS V12.07,2013-09-15 19:18:00,
2013-09-15 12:23:00,86.5,57.3,29.83,NE,45,0.0,6.1,37,0.00,,---,0.00,VWS V12.07,2013-09-15 19:23:00,
2013-09-15 12:28:00,86.5,56.9,29.83,NE,45,0.0,6.1,37,0.00,,---,0.00,VWS V12.07,2013-09-15 19:28:00,
2013-09-15 12:30:00,86.5,56.9,29.83,NE,45,0.0,3.4,37,0.00,,---,0.00,VWS V12.07,2013-09-15 19:30:00,
2013-09-15 12:33:00,86.9,57.7,29.83,NE,52,0.0,6.1,37,0.00,,---,0.00,VWS V12.07,2013-09-15 19:33:00,
2013-09-15 12:38:00,87.5,57.7,29.83,ENE,62,0.0,6.1,36,0.00,,---,0.00,VWS V12.07,2013-09-15 19:38:00,
2013-09-15 12:43:00,87.3,57.2,29.83,ENE,62,0.0,6.1,36,0.00,,---,0.00,VWS V12.07,2013-09-15 19:43:00,
2013-09-15 12:48:00,87.3,57.0,29.82,ENE,62,0.0,5.7,36,0.00,,---,0.00,VWS V12.07,2013-09-15 19:48:00,
2013-09-15 12:53:00,87.4,57.4,29.82,ESE,108,0.0,5.7,36,0.00,,---,0.00,VWS V12.07,2013-09-15 19:53:00,
2013-09-15 12:58:00,87.5,56.9,29.82,SW,236,0.0,5.7,36,0.00,,---,0.00,VWS V12.07,2013-09-15 19:58:00,
2013-09-15 13:00:00,87.5,56.9,29.82,SW,236,0.0,5.7,36,0.00,,---,0.00,VWS V12.07,2013-09-15 20:00:00,
2013-09-15 13:03:00,87.8,57.5,29.82,SW,236,0.0,5.7,36,0.00,,---,0.00,VWS V12.07,2013-09-15 20:03:00,
2013-09-15 13:08:00,88.3,56.9,29.82,ESE,118,0.0,5.7,35,0.00,,---,0.00,VWS V12.07,2013-09-15 20:08:00,
2013-09-15 13:13:00,88.2,56.7,29.82,ESE,103,0.0,5.7,34,0.00,,---,0.00,VWS V12.07,2013-09-15 20:13:00,
2013-09-15 13:18:00,88.3,55.8,29.82,ESE,103,0.0,5.7,33,0.00,,---,0.00,VWS V12.07,2013-09-15 20:18:00,
2013-09-15 13:23:00,88.8,56.0,29.81,ESE,103,0.0,5.7,33,0.00,,---,0.00,VWS V12.07,2013-09-15 20:23:00,
2013-09-15 13:28:00,89.3,55.1,29.81,ESE,103,0.0,5.7,31,0.00,,---,0.00,VWS V12.07,2013-09-15 20:28:00,
2013-09-15 13:30:00,89.3,55.1,29.81,ESE,103,0.0,5.7,31,0.00,,---,0.00,VWS V12.07,2013-09-15 20:30:00,
2013-09-15 13:33:00,89.4,54.7,29.81,ESE,103,0.0,5.7,31,0.00,,---,0.00,VWS V12.07,2013-09-15 20:33:00,
2013-09-15 13:38:00,89.8,55.9,29.81,NE,51,0.0,6.4,32,0.00,,---,0.00,VWS V12.07,2013-09-15 20:38:00,
2013-09-15 13:43:00,89.2,54.4,29.81,East,83,0.0,6.4,31,0.00,,---,0.00,VWS V12.07,2013-09-15 20:43:00,
2013-09-15 13:48:00,89.3,53.7,29.80,NE,49,0.0,6.4,30,0.00,,---,0.00,VWS V12.07,2013-09-15 20:48:00,
2013-09-15 13:53:00,89.7,53.3,29.80,NE,49,0.0,6.4,29,0.00,,---,0.00,VWS V12.07,2013-09-15 20:53:00,
2013-09-15 13:58:00,90.3,53.1,29.80,NE,35,0.0,8.0,28,0.00,,---,0.00,VWS V12.07,2013-09-15 20:58:00,
2013-09-15 14:00:00,90.3,53.1,29.80,NE,35,0.0,8.0,28,0.00,,---,0.00,VWS V12.07,2013-09-15 21:00:00,
2013-09-15 14:03:00,90.6,52.8,29.79,NNE,30,0.0,8.0,28,0.00,,---,0.00,VWS V12.07,2013-09-15 21:03:00,
2013-09-15 14:08:00,90.5,53.0,29.79,NNE,30,0.0,8.0,28,0.00,,---,0.00,VWS V12.07,2013-09-15 21:08:00,
2013-09-15 14:13:00,90.7,52.8,29.79,NNE,30,0.0,8.0,28,0.00,,---,0.00,VWS V12.07,2013-09-15 21:13:00,
2013-09-15 14:18:00,91.0,51.8,29.79,NNE,30,0.0,8.0,26,0.00,,---,0.00,VWS V12.07,2013-09-15 21:18:00,
2013-09-15 14:23:00,90.9,51.9,29.79,NE,52,3.1,8.0,27,0.00,,---,0.00,VWS V12.07,2013-09-15 21:23:00,
2013-09-15 14:28:00,90.9,49.8,29.79,ENE,66,0.0,8.0,25,0.00,,---,0.00,VWS V12.07,2013-09-15 21:28:00,
2013-09-15 14:30:00,91.0,49.9,29.79,ENE,66,0.0,6.4,25,0.00,,---,0.00,VWS V12.07,2013-09-15 21:30:00,
2013-09-15 14:33:00,90.8,49.6,29.79,North,357,0.0,8.0,24,0.00,,---,0.00,VWS V12.07,2013-09-15 21:33:00,
2013-09-15 14:38:00,91.3,49.2,29.79,NE,44,0.0,8.0,24,0.00,,---,0.00,VWS V12.07,2013-09-15 21:38:00,
2013-09-15 14:43:00,91.8,46.7,29.79,ENE,63,0.0,8.0,21,0.00,,---,0.00,VWS V12.07,2013-09-15 21:43:00,
2013-09-15 14:48:00,92.1,45.6,29.79,NE,34,0.0,7.8,20,0.00,,---,0.00,VWS V12.07,2013-09-15 21:48:00,
2013-09-15 14:53:00,91.9,47.3,29.79,NE,39,0.0,7.8,22,0.00,,---,0.00,VWS V12.07,2013-09-15 21:53:00,
2013-09-15 14:58:00,91.9,48.7,29.79,NE,55,4.3,7.8,23,0.00,,---,0.00,VWS V12.07,2013-09-15 21:58:00,
2013-09-15 15:00:00,91.9,48.7,29.79,ENE,63,4.3,7.8,23,0.00,,---,0.00,VWS V12.07,2013-09-15 22:00:00,
2013-09-15 15:03:00,91.7,49.5,29.78,NE,41,0.0,8.5,24,0.00,,---,0.00,VWS V12.07,2013-09-15 22:03:00,
2013-09-15 15:08:00,91.8,47.8,29.79,NNE,17,5.0,10.6,22,0.00,,---,0.00,VWS V12.07,2013-09-15 22:08:00,
2013-09-15 15:13:00,92.0,48.0,29.78,ENE,62,0.0,10.6,22,0.00,,---,0.00,VWS V12.07,2013-09-15 22:13:00,
2013-09-15 15:18:00,92.1,48.3,29.78,East,91,0.0,10.6,22,0.00,,---,0.00,VWS V12.07,2013-09-15 22:18:00,
2013-09-15 15:23:00,92.2,49.1,29.78,East,97,3.4,10.6,23,0.00,,---,0.00,VWS V12.07,2013-09-15 22:23:00,
2013-09-15 15:28:00,92.0,49.4,29.78,ESE,104,3.4,10.9,23,0.00,,---,0.00,VWS V12.07,2013-09-15 22:28:00,
2013-09-15 15:30:00,91.9,49.3,29.78,ESE,104,0.0,10.9,23,0.00,,---,0.00,VWS V12.07,2013-09-15 22:30:00,
2013-09-15 15:33:00,91.8,49.6,29.78,NE,42,2.9,10.9,24,0.00,,---,0.00,VWS V12.07,2013-09-15 22:33:00,
2013-09-15 15:38:00,91.7,49.7,29.77,ENE,62,0.0,10.9,24,0.00,,---,0.00,VWS V12.07,2013-09-15 22:38:00,
2013-09-15 15:43:00,91.4,49.8,29.78,NNE,27,0.0,10.9,24,0.00,,---,0.00,VWS V12.07,2013-09-15 22:43:00,
2013-09-15 15:48:00,91.7,49.9,29.78,NNE,32,2.5,8.1,24,0.00,,---,0.00,VWS V12.07,2013-09-15 22:48:00,
2013-09-15 15:53:00,92.0,49.8,29.77,ENE,75,0.0,8.1,24,0.00,,---,0.00,VWS V12.07,2013-09-15 22:53:00,
2013-09-15 15:58:00,92.4,49.2,29.78,NNE,25,0.0,8.1,23,0.00,,---,0.00,VWS V12.07,2013-09-15 22:58:00,
2013-09-15 16:00:00,92.6,49.3,29.78,NNE,25,0.0,8.1,23,0.00,,---,0.00,VWS V12.07,2013-09-15 23:00:00,
2013-09-15 16:03:00,92.3,49.0,29.77,NNE,25,0.0,8.1,23,0.00,,---,0.00,VWS V12.07,2013-09-15 23:03:00,
2013-09-15 16:08:00,92.3,49.9,29.77,NNE,25,0.0,8.1,24,0.00,,---,0.00,VWS V12.07,2013-09-15 23:08:00,
2013-09-15 16:13:00,92.5,50.4,29.77,NNE,25,0.0,8.1,24,0.00,,---,0.00,VWS V12.07,2013-09-15 23:13:00,
2013-09-15 16:18:00,92.5,50.6,29.77,NNE,25,0.0,8.1,24,0.00,,---,0.00,VWS V12.07,2013-09-15 23:18:00,
2013-09-15 16:23:00,92.3,51.1,29.78,NNE,25,0.0,8.1,25,0.00,,---,0.00,VWS V12.07,2013-09-15 23:23:00,
2013-09-15 16:28:00,92.0,50.4,29.78,NE,41,0.0,8.1,24,0.00,,---,0.00,VWS V12.07,2013-09-15 23:28:00,
2013-09-15 16:30:00,91.9,50.3,29.78,NE,41,0.0,7.5,24,0.00,,---,0.00,VWS V12.07,2013-09-15 23:30:00,
2013-09-15 16:33:00,91.7,50.7,29.78,NE,37,3.4,8.7,25,0.00,,---,0.00,VWS V12.07,2013-09-15 23:33:00,
2013-09-15 16:38:00,91.2,50.0,29.78,NE,55,2.5,9.9,24,0.00,,---,0.00,VWS V12.07,2013-09-15 23:38:00,
2013-09-15 16:43:00,90.9,50.6,29.78,NNE,21,0.0,9.9,25,0.00,,---,0.00,VWS V12.07,2013-09-15 23:43:00,
2013-09-15 16:48:00,91.1,49.8,29.79,NE,53,3.4,9.9,24,0.00,,---,0.00,VWS V12.07,2013-09-15 23:48:00,
2013-09-15 16:53:00,90.8,49.4,29.79,NE,48,5.3,9.9,24,0.00,,---,0.00,VWS V12.07,2013-09-15 23:53:00,
2013-09-15 16:58:00,90.8,49.7,29.79,ESE,117,0.0,9.9,25,0.00,,---,0.00,VWS V12.07,2013-09-15 23:58:00,
2013-09-15 17:00:00,90.9,49.8,29.79,ESE,117,3.2,9.9,25,0.00,,---,0.00,VWS V12.07,2013-09-16 00:00:00,
2013-09-15 17:03:00,90.6,52.0,29.79,ENE,72,0.0,11.7,27,0.00,,---,0.00,VWS V12.07,2013-09-16 00:03:00,
2013-09-15 17:08:00,89.4,51.8,29.79,East,93,0.0,11.7,28,0.00,,---,0.00,VWS V12.07,2013-09-16 00:08:00,
2013-09-15 17:13:00,88.6,52.0,29.79,ENE,76,3.4,11.7,29,0.00,,---,0.00,VWS V12.07,2013-09-16 00:13:00,
2013-09-15 17:18:00,88.0,51.7,29.79,ESE,114,0.0,11.7,29,0.00,,---,0.00,VWS V12.07,2013-09-16 00:18:00,
2013-09-15 17:23:00,87.5,52.3,29.79,ESE,103,3.5,11.7,30,0.00,,---,0.00,VWS V12.07,2013-09-16 00:23:00,
2013-09-15 17:28:00,86.9,51.9,29.79,ESE,105,0.0,11.7,30,0.00,,---,0.00,VWS V12.07,2013-09-16 00:28:00,
2013-09-15 17:30:00,86.9,51.9,29.79,ESE,105,0.0,11.7,30,0.00,,---,0.00,VWS V12.07,2013-09-16 00:30:00,
2013-09-15 17:33:00,86.3,52.0,29.79,ESE,105,0.0,11.7,31,0.00,,---,0.00,VWS V12.07,2013-09-16 00:33:00,
2013-09-15 17:38:00,85.9,52.6,29.79,ESE,105,0.0,11.7,32,0.00,,---,0.00,VWS V12.07,2013-09-16 00:38:00,
2013-09-15 17:43:00,85.8,52.8,29.79,ESE,105,0.0,11.7,32,0.00,,---,0.00,VWS V12.07,2013-09-16 00:43:00,
2013-09-15 17:48:00,85.8,52.9,29.79,ESE,105,0.0,0.0,32,0.00,,---,0.00,VWS V12.07,2013-09-16 00:48:00,
2013-09-15 17:53:00,85.7,52.2,29.79,ESE,105,0.0,0.0,32,0.00,,---,0.00,VWS V12.07,2013-09-16 00:53:00,
2013-09-15 17:58:00,85.5,53.4,29.79,ESE,105,0.0,0.0,33,0.00,,---,0.00,VWS V12.07,2013-09-16 00:58:00,
2013-09-15 18:00:00,85.5,53.5,29.79,ESE,105,0.0,0.0,34,0.00,,---,0.00,VWS V12.07,2013-09-16 01:00:00,
2013-09-15 18:03:00,85.2,54.0,29.79,ESE,105,0.0,0.0,34,0.00,,---,0.00,VWS V12.07,2013-09-16 01:03:00,
2013-09-15 18:08:00,85.0,54.5,29.79,ESE,105,0.0,0.0,35,0.00,,---,0.00,VWS V12.07,2013-09-16 01:08:00,
2013-09-15 18:13:00,84.5,54.5,29.79,ESE,105,0.0,0.0,36,0.00,,---,0.00,VWS V12.07,2013-09-16 01:13:00,
2013-09-15 18:18:00,83.7,54.2,29.79,West,281,0.0,5.0,36,0.00,,---,0.00,VWS V12.07,2013-09-16 01:18:00,
2013-09-15 18:23:00,83.4,54.5,29.79,WNW,300,0.0,5.0,37,0.00,,---,0.00,VWS V12.07,2013-09-16 01:23:00,
2013-09-15 18:28:00,82.9,54.6,29.79,WNW,300,0.0,5.0,38,0.00,,---,0.00,VWS V12.07,2013-09-16 01:28:00,
2013-09-15 18:30:00,82.9,54.6,29.79,WNW,300,0.0,5.0,38,0.00,,---,0.00,VWS V12.07,2013-09-16 01:30:00,
2013-09-15 18:33:00,82.5,54.9,29.79,WNW,300,0.0,5.0,39,0.00,,---,0.00,VWS V12.07,2013-09-16 01:33:00,
2013-09-15 18:38:00,82.1,55.3,29.79,WNW,300,0.0,5.0,40,0.00,,---,0.00,VWS V12.07,2013-09-16 01:38:00,
2013-09-15 18:43:00,81.6,55.6,29.79,WNW,300,0.0,5.0,41,0.00,,---,0.00,VWS V12.07,2013-09-16 01:43:00,
2013-09-15 18:48:00,81.1,55.6,29.79,WNW,300,0.0,0.0,42,0.00,,---,0.00,VWS V12.07,2013-09-16 01:48:00,
2013-09-15 18:53:00,80.7,55.3,29.79,WNW,300,0.0,0.0,42,0.00,,---,0.00,VWS V12.07,2013-09-16 01:53:00,
2013-09-15 18:58:00,80.5,55.3,29.79,WNW,300,0.0,0.0,42,0.00,,---,0.00,VWS V12.07,2013-09-16 01:58:00,
2013-09-15 19:00:00,80.4,55.2,29.79,WNW,300,0.0,0.0,42,0.00,,---,0.00,VWS V12.07,2013-09-16 02:00:00,
2013-09-15 19:03:00,80.3,55.4,29.79,WNW,300,0.0,0.0,42,0.00,,---,0.00,VWS V12.07,2013-09-16 02:03:00,
2013-09-15 19:08:00,79.9,55.4,29.79,WNW,300,0.0,0.0,43,0.00,,---,0.00,VWS V12.07,2013-09-16 02:08:00,
2013-09-15 19:13:00,79.7,55.5,29.79,WNW,300,0.0,0.0,43,0.00,,---,0.00,VWS V12.07,2013-09-16 02:13:00,
2013-09-15 19:18:00,79.4,55.5,29.79,WNW,300,0.0,0.0,44,0.00,,---,0.00,VWS V12.07,2013-09-16 02:18:00,
2013-09-15 19:23:00,79.0,55.2,29.80,WNW,300,0.0,0.0,44,0.00,,---,0.00,VWS V12.07,2013-09-16 02:23:00,
2013-09-15 19:28:00,78.8,55.1,29.80,WNW,300,0.0,0.0,44,0.00,,---,0.00,VWS V12.07,2013-09-16 02:28:00,
2013-09-15 19:30:00,78.9,55.3,29.80,WNW,300,0.0,0.0,44,0.00,,---,0.00,VWS V12.07,2013-09-16 02:30:00,
2013-09-15 19:33:00,78.5,54.9,29.80,WNW,300,0.0,0.0,44,0.00,,---,0.00,VWS V12.07,2013-09-16 02:33:00,
2013-09-15 19:38:00,78.5,54.7,29.81,WNW,298,0.0,3.5,44,0.00,,---,0.00,VWS V12.07,2013-09-16 02:38:00,
2013-09-15 19:43:00,78.4,54.8,29.81,WNW,298,0.0,3.5,44,0.00,,---,0.00,VWS V12.07,2013-09-16 02:43:00,
2013-09-15 19:48:00,78.2,54.3,29.81,West,276,0.0,3.5,44,0.00,,---,0.00,VWS V12.07,2013-09-16 02:48:00,
2013-09-15 19:53:00,78.2,54.4,29.81,West,276,0.0,3.5,44,0.00,,---,0.00,VWS V12.07,2013-09-16 02:53:00,
2013-09-15 19:58:00,78.0,55.0,29.82,West,276,0.0,3.5,45,0.00,,---,0.00,VWS V12.07,2013-09-16 02:58:00,
2013-09-15 20:00:00,78.0,55.1,29.82,West,276,0.0,3.5,45,0.00,,---,0.00,VWS V12.07,2013-09-16 03:00:00,
2013-09-15 20:03:00,77.7,55.5,29.82,West,276,0.0,3.5,46,0.00,,---,0.00,VWS V12.07,2013-09-16 03:03:00,
2013-09-15 20:08:00,77.2,55.1,29.82,West,276,0.0,3.5,46,0.00,,---,0.00,VWS V12.07,2013-09-16 03:08:00,
2013-09-15 20:13:00,76.9,55.2,29.82,West,276,0.0,3.5,47,0.00,,---,0.00,VWS V12.07,2013-09-16 03:13:00,
2013-09-15 20:18:00,76.6,56.1,29.83,West,276,0.0,3.5,49,0.00,,---,0.00,VWS V12.07,2013-09-16 03:18:00,
2013-09-15 20:23:00,75.9,56.4,29.83,West,276,0.0,3.5,51,0.00,,---,0.00,VWS V12.07,2013-09-16 03:23:00,
2013-09-15 20:28:00,75.6,56.4,29.84,West,276,0.0,3.5,51,0.00,,---,0.00,VWS V12.07,2013-09-16 03:28:00,
2013-09-15 20:30:00,75.6,56.4,29.84,West,276,0.0,2.0,51,0.00,,---,0.00,VWS V12.07,2013-09-16 03:30:00,
2013-09-15 20:33:00,75.2,56.5,29.84,West,276,0.0,3.5,52,0.00,,---,0.00,VWS V12.07,2013-09-16 03:33:00,
2013-09-15 20:38:00,74.7,56.6,29.84,West,276,0.0,3.5,53,0.00,,---,0.00,VWS V12.07,2013-09-16 03:38:00,
2013-09-15 20:43:00,74.4,56.6,29.84,West,276,0.0,3.5,54,0.00,,---,0.00,VWS V12.07,2013-09-16 03:43:00,
2013-09-15 20:48:00,74.2,56.6,29.84,West,276,0.0,0.0,54,0.00,,---,0.00,VWS V12.07,2013-09-16 03:48:00,
2013-09-15 20:53:00,73.8,56.5,29.84,West,276,0.0,0.0,55,0.00,,---,0.00,VWS V12.07,2013-09-16 03:53:00,
2013-09-15 20:58:00,73.6,56.5,29.84,West,276,0.0,0.0,55,0.00,,---,0.00,VWS V12.07,2013-09-16 03:58:00,
2013-09-15 21:00:00,73.7,56.7,29.84,West,276,0.0,0.0,55,0.00,,---,0.00,VWS V12.07,2013-09-16 04:00:00,
2013-09-15 21:01:00,73.4,56.5,29.84,West,276,0.0,0.0,56,0.00,,---,0.00,VWS V12.07,2013-09-16 04:01:00,
2013-09-15 21:02:00,73.4,56.5,29.84,West,276,0.0,0.0,56,0.00,,---,0.00,VWS V12.07,2013-09-16 04:02:00,
2013-09-15 21:07:00,73.3,56.5,29.84,West,276,0.0,0.0,56,0.00,,---,0.00,VWS V12.07,2013-09-16 04:07:00,
2013-09-15 21:12:00,73.2,56.3,29.84,West,276,0.0,0.0,55,0.00,,---,0.00,VWS V12.07,2013-09-16 04:12:00,
2013-09-15 21:17:00,73.2,55.8,29.84,West,276,0.0,0.0,54,0.00,,---,0.00,VWS V12.07,2013-09-16 04:17:00,
2013-09-15 21:22:00,73.0,55.7,29.84,West,276,0.0,0.0,55,0.00,,---,0.00,VWS V12.07,2013-09-16 04:22:00,
2013-09-15 21:27:00,73.0,55.4,29.84,West,276,0.0,0.0,54,0.00,,---,0.00,VWS V12.07,2013-09-16 04:27:00,
2013-09-15 21:30:00,72.9,55.3,29.84,West,276,0.0,0.0,54,0.00,,---,0.00,VWS V12.07,2013-09-16 04:30:00,
2013-09-15 21:32:00,72.8,55.2,29.84,West,276,0.0,0.0,54,0.00,,---,0.00,VWS V12.07,2013-09-16 04:32:00,
2013-09-15 21:37:00,72.8,55.0,29.84,West,276,0.0,0.0,54,0.00,,---,0.00,VWS V12.07,2013-09-16 04:37:00,
2013-09-15 21:42:00,72.8,55.1,29.84,West,276,0.0,0.0,54,0.00,,---,0.00,VWS V12.07,2013-09-16 04:42:00,
2013-09-15 21:47:00,72.6,55.3,29.84,West,276,0.0,0.0,55,0.00,,---,0.00,VWS V12.07,2013-09-16 04:47:00,
2013-09-15 21:52:00,72.3,55.2,29.84,West,276,0.0,0.0,55,0.00,,---,0.00,VWS V12.07,2013-09-16 04:52:00,
2013-09-15 21:57:00,72.2,55.0,29.84,West,276,0.0,0.0,55,0.00,,---,0.00,VWS V12.07,2013-09-16 04:57:00,
2013-09-15 22:00:00,72.1,54.9,29.84,West,276,0.0,0.0,55,0.00,,---,0.00,VWS V12.07,2013-09-16 05:00:00,
2013-09-15 22:02:00,72.2,54.8,29.84,West,276,0.0,0.0,54,0.00,,---,0.00,VWS V12.07,2013-09-16 05:02:00,
2013-09-15 22:07:00,72.2,54.8,29.84,West,276,0.0,0.0,54,0.00,,---,0.00,VWS V12.07,2013-09-16 05:07:00,
2013-09-15 22:12:00,72.1,55.1,29.85,West,276,0.0,0.0,55,0.00,,---,0.00,VWS V12.07,2013-09-16 05:12:00,
2013-09-15 22:17:00,72.1,55.2,29.85,West,276,0.0,0.0,55,0.00,,---,0.00,VWS V12.07,2013-09-16 05:17:00,
2013-09-15 22:22:00,71.7,55.0,29.85,West,276,0.0,0.0,56,0.00,,---,0.00,VWS V12.07,2013-09-16 05:22:00,
2013-09-15 22:27:00,71.6,55.3,29.85,West,276,0.0,0.0,56,0.00,,---,0.00,VWS V12.07,2013-09-16 05:27:00,
2013-09-15 22:30:00,71.7,55.3,29.85,West,276,0.0,0.0,56,0.00,,---,0.00,VWS V12.07,2013-09-16 05:30:00,
2013-09-15 22:32:00,71.3,55.2,29.85,West,276,0.0,0.0,57,0.00,,---,0.00,VWS V12.07,2013-09-16 05:32:00,
2013-09-15 22:37:00,71.3,55.2,29.84,West,276,0.0,0.0,57,0.00,,---,0.00,VWS V12.07,2013-09-16 05:37:00,
2013-09-15 22:42:00,71.2,55.5,29.85,West,276,0.0,0.0,58,0.00,,---,0.00,VWS V12.07,2013-09-16 05:42:00,
2013-09-15 22:47:00,70.7,55.7,29.85,West,276,0.0,0.0,59,0.00,,---,0.00,VWS V12.07,2013-09-16 05:47:00,
2013-09-15 22:52:00,70.6,55.7,29.85,West,276,0.0,0.0,59,0.00,,---,0.00,VWS V12.07,2013-09-16 05:52:00,
2013-09-15 22:57:00,70.5,55.7,29.85,West,276,0.0,0.0,60,0.00,,---,0.00,VWS V12.07,2013-09-16 05:57:00,
2013-09-15 23:00:00,70.3,55.7,29.85,West,276,0.0,0.0,60,0.00,,---,0.00,VWS V12.07,2013-09-16 06:00:00,
2013-09-15 23:02:00,70.2,55.7,29.85,West,276,0.0,0.0,60,0.00,,---,0.00,VWS V12.07,2013-09-16 06:02:00,
2013-09-15 23:07:00,70.0,56.0,29.85,West,276,0.0,0.0,61,0.00,,---,0.00,VWS V12.07,2013-09-16 06:07:00,
2013-09-15 23:12:00,69.6,55.8,29.85,West,276,0.0,0.0,61,0.00,,---,0.00,VWS V12.07,2013-09-16 06:12:00,
2013-09-15 23:17:00,69.4,55.8,29.85,West,276,0.0,0.0,62,0.00,,---,0.00,VWS V12.07,2013-09-16 06:17:00,
2013-09-15 23:22:00,69.4,55.8,29.85,West,276,0.0,0.0,62,0.00,,---,0.00,VWS V12.07,2013-09-16 06:22:00,
2013-09-15 23:27:00,69.2,55.5,29.85,West,276,0.0,0.0,62,0.00,,---,0.00,VWS V12.07,2013-09-16 06:27:00,
2013-09-15 23:30:00,69.2,55.5,29.85,West,276,0.0,0.0,62,0.00,,---,0.00,VWS V12.07,2013-09-16 06:30:00,
2013-09-15 23:32:00,69.2,55.3,29.85,West,276,0.0,0.0,61,0.00,,---,0.00,VWS V12.07,2013-09-16 06:32:00,
2013-09-15 23:37:00,68.9,55.3,29.85,West,276,0.0,0.0,62,0.00,,---,0.00,VWS V12.07,2013-09-16 06:37:00,
2013-09-15 23:42:00,68.9,55.1,29.85,West,276,0.0,0.0,62,0.00,,---,0.00,VWS V12.07,2013-09-16 06:42:00,
2013-09-15 23:47:00,68.8,55.3,29.85,West,276,0.0,0.0,62,0.00,,---,0.00,VWS V12.07,2013-09-16 06:47:00,
2013-09-15 23:52:00,68.9,55.5,29.86,West,276,0.0,0.0,62,0.00,,---,0.00,VWS V12.07,2013-09-16 06:52:00,
2013-09-15 23:57:00,68.6,55.6,29.86,West,276,0.0,0.0,63,0.00,,---,0.00,VWS V12.07,2013-09-16 06:57:00,